Theta_e
319 318 318 318 317 317 317 317 317 317 317 317 317 317 318 318 318 318 318 318 318 317 320 322 323 326 322 309 312 322 345 331 340 327 324 322 319 319 316 319 323 322 328 333 336 336 336
318 318 317 317 317 316 316 316 316 317 317 317 316 317 317 317 318 318 318 317 317 318 320 322 324 327 314 305 317 318 317 317 319 322 321 321 320 321 319 318 319 328 331 332 335 335 335
318 318 318 317 316 316 316 315 316 316 316 316 316 316 317 317 317 317 317 316 316 318 320 322 324 325 310 310 316 316 317 317 317 318 316 320 323 322 321 319 326 329 328 330 331 333 331
317 317 317 317 316 315 315 315 315 315 315 315 315 316 316 317 316 316 315 315 316 319 321 323 325 319 307 313 315 317 319 317 317 317 318 320 323 322 321 321 327 323 324 319 329 332 333
317 317 317 317 316 315 315 315 315 314 314 315 315 315 316 316 316 315 314 314 317 321 322 323 319 312 307 320 314 317 318 314 316 317 319 323 324 320 320 322 320 319 314 316 322 332 331
317 317 316 316 316 315 315 314 314 314 314 314 314 315 315 315 315 313 313 314 317 321 322 324 320 306 309 309 313 316 316 315 316 316 319 320 320 318 317 317 309 314 314 317 318 327 328
318 317 316 316 315 315 314 314 314 314 314 314 314 314 314 314 314 312 311 313 310 308 313 307 306 305 306 312 313 315 314 315 316 316 315 314 315 312 314 314 314 314 312 316 320 325 325
319 318 317 316 317 316 316 315 315 315 315 315 315 315 314 314 313 312 309 308 309 309 307 309 310 308 310 312 310 313 314 312 312 310 313 313 312 315 314 314 313 313 311 312 317 323 324
319 318 318 317 316 316 315 315 314 315 315 315 314 314 313 313 312 310 308 309 314 313 306 306 308 309 311 313 311 311 312 311 310 309 310 312 314 314 313 313 313 313 312 311 312 320 323
319 319 318 317 317 317 316 315 314 314 314 313 313 314 313 311 309 310 312 314 315 313 302 303 306 310 311 312 309 315 312 312 311 309 310 311 313 312 311 310 312 310 315 314 316 315 311
318 319 318 318 318 317 317 316 314 314 313 313 313 312 311 310 308 311 314 315 313 310 290 305 307 314 310 309 309 309 311 311 309 309 312 313 311 310 311 311 314 311 314 311 316 313 313
318 318 318 318 318 317 316 316 316 315 313 313 312 311 311 309 309 312 314 314 311 301 291 305 308 307 307 307 307 309 309 313 315 311 311 313 313 312 314 312 314 313 311 308 310 310 305
319 319 319 319 318 317 316 316 315 315 313 312 310 309 309 312 311 313 314 312 301 293 304 302 303 305 305 304 305 307 306 306 306 304 306 308 310 311 311 309 312 312 308 304 301 301 301
319 318 319 318 317 317 316 316 315 314 312 310 308 308 309 311 313 312 312 308 293 298 302 307 303 300 302 303 305 304 305 303 306 309 306 307 305 309 310 310 313 313 309 303 297 299 302
320 319 319 318 317 317 316 316 315 314 311 309 308 310 310 312 313 312 311 301 298 300 306 303 303 299 300 302 303 304 304 305 308 308 308 304 304 308 308 310 311 306 307 310 301 301 301
321 319 319 319 318 317 316 316 315 314 311 309 309 313 314 313 313 313 309 297 302 306 308 304 299 300 299 301 302 302 303 307 306 309 312 307 304 306 311 313 311 309 310 303 304 298 297
322 320 319 319 318 317 317 316 314 313 311 309 313 314 314 313 312 313 303 303 305 310 310 303 300 299 301 302 303 302 304 306 309 308 310 307 305 305 308 312 310 308 306 304 306 304 301
322 321 320 319 318 317 316 316 314 312 309 308 314 312 315 313 308 304 304 305 303 307 308 306 304 303 301 303 304 303 304 308 309 309 306 309 306 303 304 312 315 312 311 308 305 303 305
322 321 321 320 318 317 316 315 313 311 309 308 314 312 316 311 303 304 304 304 305 305 306 306 304 304 305 305 304 305 304 308 308 309 308 307 305 300 304 310 312 311 311 309 307 309 307
322 322 322 320 319 317 316 315 313 311 309 310 316 309 311 310 306 305 305 306 305 309 308 309 308 308 307 305 306 307 304 308 307 310 322 313 305 305 301 305 311 310 310 309 309 307 307
322 322 322 321 319 317 316 315 313 311 309 310 318 315 312 305 307 306 307 306 305 306 310 310 312 309 313 310 309 304 307 311 311 320 312 311 305 307 308 308 309 309 310 309 309 310 308
321 321 321 321 318 317 316 315 314 311 308 314 316 316 318 314 312 312 306 311 309 311 310 310 312 313 313 311 310 308 311 312 313 312 311 311 308 311 309 310 310 308 310 311 311 309 309
319 321 321 321 318 316 316 315 314 311 307 305 306 315 316 307 311 312 312 311 310 313 313 315 316 314 313 314 317 317 315 314 314 313 312 311 309 310 304 309 309 306 310 311 311 313 313
318 320 321 321 318 316 315 315 315 313 310 306 305 309 312 309 312 312 312 312 312 314 312 317 318 317 318 321 319 317 316 314 314 312 315 312 312 312 307 308 300 310 312 313 313 313 316
317 319 320 320 317 316 315 315 315 314 312 308 307 309 312 308 310 311 312 313 313 314 313 315 317 322 323 318 315 311 312 312 312 310 311 316 314 308 307 306 306 307 313 313 313 312 318
315 317 319 320 317 315 314 314 314 314 312 307 307 309 312 308 308 311 312 311 311 314 313 316 321 321 322 318 314 306 306 308 308 309 313 311 316 313 307 304 301 310 313 316 317 306 320
315 317 319 319 317 315 314 314 314 313 312 309 307 308 310 307 312 312 312 308 312 315 315 316 318 316 319 317 310 306 306 309 306 307 309 309 310 308 307 306 307 311 316 317 305 308 321
315 316 318 318 317 315 313 313 313 313 312 308 305 309 305 303 305 310 312 311 311 315 314 317 318 316 312 311 310 308 306 309 308 310 310 309 308 306 305 304 301 315 316 310 318 320 328
316 316 318 318 317 315 313 313 312 312 312 308 302 306 307 301 302 309 311 314 316 315 311 314 316 317 319 312 310 310 308 306 308 306 312 307 310 310 310 310 314 319 318 320 321 324 328
Wind_Speed
13 13 13 13 13 12 12 12 12 13 13 14 14 15 15 15 15 15 15 14 14 15 15 15 15 16 6 2 7 3 2 5 3 3 4 2 1 2 2 2 3 5 3 6 6 7 7
14 13 14 13 13 13 13 13 13 13 13 13 14 15 15 16 17 17 16 15 15 15 15 13 13 15 2 5 1 2 7 4 3 3 3 4 4 4 2 2 2 4 11 11 7 8 5
15 14 13 14 14 14 13 13 13 13 13 14 15 15 15 16 17 18 17 16 15 15 14 12 10 4 2 12 2 8 5 3 3 5 2 5 3 5 2 4 3 7 10 8 8 5 3
15 15 15 14 14 14 14 14 14 14 14 14 15 15 16 17 18 18 17 16 17 16 11 9 5 2 7 3 5 10 3 4 5 4 5 3 2 1 2 2 4 2 3 4 5 7 4
16 15 15 14 14 14 15 15 14 14 15 15 15 16 17 17 18 19 18 19 15 8 6 5 2 2 8 7 3 2 4 3 3 3 1 2 1 2 2 6 4 1 3 4 4 8 6
16 16 16 16 15 15 15 15 15 15 15 15 16 16 17 17 17 19 21 14 3 3 3 4 1 3 4 1 4 4 1 2 1 1 4 1 2 2 4 1 1 3 3 5 7 11 8
16 17 17 16 16 15 16 15 15 15 16 15 16 16 17 17 17 17 11 0 3 3 2 6 1 3 3 9 3 1 1 5 2 4 3 3 3 5 2 1 2 2 5 8 7 8 12
16 16 16 16 16 15 15 15 15 15 16 16 15 15 17 17 18 13 2 3 3 3 5 8 9 8 5 2 4 2 2 5 4 3 2 3 5 3 3 3 4 5 3 6 7 9 12
14 15 15 15 17 16 17 16 17 16 16 16 15 16 16 16 17 1 3 2 3 1 3 4 4 5 5 8 5 5 7 5 4 6 4 4 2 5 2 4 6 6 4 1 4 5 5
14 14 14 15 15 15 15 15 18 18 17 17 15 15 15 18 3 2 4 2 6 5 2 2 3 4 6 4 5 4 5 3 3 9 6 4 2 5 3 3 5 1 5 5 3 4 1
14 14 15 14 15 15 16 17 19 19 18 17 16 15 14 7 5 4 3 7 2 4 2 3 3 2 1 7 4 6 1 2 9 8 7 6 8 7 7 2 3 2 2 3 3 4 3
13 15 16 15 15 16 16 16 17 17 19 18 17 14 10 2 3 5 6 3 3 3 2 2 4 5 7 3 3 4 5 1 3 6 1 4 1 3 4 2 3 2 3 5 4 2 3
13 13 14 15 15 16 17 17 18 18 21 19 18 13 6 2 0 3 5 3 2 3 2 3 0 5 6 7 5 4 8 8 8 9 10 5 6 2 4 5 5 4 1 2 3 4 1
13 14 13 14 15 16 17 18 19 19 23 22 21 9 6 5 3 5 2 2 2 1 3 1 2 3 9 8 7 5 7 10 2 3 6 11 11 8 6 8 8 4 2 7 4 3 2
11 14 13 14 15 16 17 18 19 20 24 24 15 1 2 3 9 3 3 2 2 4 3 6 1 5 4 4 4 4 8 12 12 8 9 7 8 2 4 2 1 6 12 2 3 1 4
10 12 14 13 14 16 18 19 20 22 25 22 2 1 2 3 8 3 2 2 3 4 4 1 1 2 4 7 6 8 10 8 8 11 3 5 7 2 4 5 4 4 8 7 3 4 5
8 9 13 12 14 16 18 20 21 23 26 12 2 2 5 4 4 1 4 4 4 7 5 3 2 3 2 3 5 6 11 5 11 11 5 6 3 5 4 3 5 6 5 3 3 2 4
9 9 10 11 12 15 19 19 20 22 25 2 1 2 3 3 2 1 4 5 2 6 6 6 3 7 4 7 5 6 10 8 11 15 11 7 3 4 0 1 2 0 1 5 6 6 1
9 9 10 10 11 14 19 18 19 19 19 4 2 2 2 3 3 3 1 3 5 4 5 4 3 5 3 4 4 6 6 4 13 15 14 10 5 4 4 2 2 5 4 2 4 2 6
9 9 9 9 10 13 17 16 18 19 16 2 2 3 2 1 1 2 2 3 4 4 6 5 3 2 3 4 7 2 5 2 10 11 10 15 6 7 6 3 2 6 7 6 4 4 5
8 8 8 8 10 13 14 16 18 19 12 2 2 1 2 4 4 4 3 3 4 4 5 4 3 6 3 3 2 6 7 3 3 5 5 10 10 5 2 2 1 2 9 10 8 3 7
8 8 8 7 8 11 13 15 17 21 12 0 3 1 1 1 1 4 4 3 5 6 5 3 4 2 5 4 1 3 3 5 5 6 8 4 5 4 3 2 1 3 5 9 7 3 7
9 8 7 6 6 9 12 13 14 17 11 3 2 1 3 1 3 3 4 4 3 2 7 4 6 6 7 1 5 6 8 10 5 9 8 11 9 7 7 1 3 5 9 9 4 5 5
8 8 7 6 4 7 10 12 12 12 9 1 1 2 3 2 3 4 1 3 9 8 5 4 3 6 5 4 4 5 8 2 10 6 5 10 10 3 6 6 7 3 2 5 8 4 8
8 9 8 6 3 5 8 10 11 10 8 1 0 2 2 4 3 7 5 6 8 4 5 8 2 5 7 6 3 3 2 4 7 8 5 6 6 6 5 8 2 2 4 6 7 4 8
9 9 8 5 2 3 6 9 10 9 9 0 1 1 2 3 2 3 4 3 3 2 4 3 1 4 5 4 4 3 0 3 2 3 4 6 5 4 4 5 9 4 4 3 3 2 5
7 9 8 5 3 2 5 7 9 10 9 2 0 2 2 3 3 2 2 3 3 2 3 1 1 2 1 2 4 2 2 1 3 7 4 3 3 4 4 3 1 2 3 3 4 2 5
8 9 8 6 5 3 2 5 7 9 10 4 1 1 3 3 8 6 3 4 3 2 2 3 2 2 3 3 3 4 1 2 2 3 3 5 5 3 3 3 4 7 9 3 3 3 6
8 8 8 7 6 4 2 4 6 7 8 4 1 1 2 5 6 3 9 14 13 8 3 3 3 2 0 5 4 1 2 3 4 4 1 3 2 2 5 2 2 2 1 3 4 1 5
Wind_Direction
8 5 4 3 1 358 357 356 353 351 349 346 344 343 342 340 337 334 329 324 321 319 319 322 323 323 317 295 251 137 4 338 166 191 235 231 276 205 224 232 196 228 105 68 128 132 123
7 5 2 360 358 356 354 353 350 348 346 344 343 341 341 339 336 333 328 323 318 313 314 317 320 318 275 268 170 112 340 321 182 212 213 222 251 256 194 64 31 109 113 117 114 125 134
6 2 1 358 356 353 350 350 348 346 344 342 339 338 338 337 334 330 326 320 310 308 307 306 313 313 204 245 142 306 292 246 211 210 243 217 217 247 80 104 116 127 99 102 110 129 139
7 3 359 357 354 351 348 347 346 344 341 340 338 336 335 335 334 330 323 315 304 297 289 288 285 245 255 239 307 293 251 258 229 225 240 316 232 12 7 132 88 62 108 177 137 162 148
8 5 360 354 352 350 348 346 345 342 339 338 337 335 333 331 332 330 322 313 301 276 233 257 218 276 263 313 254 310 213 223 196 169 274 120 174 60 89 113 125 72 217 214 174 191 170
5 3 3 358 352 350 348 346 343 340 338 337 335 333 330 330 332 332 323 308 255 155 175 202 233 268 251 28 306 315 174 226 136 62 176 118 55 109 110 133 182 213 235 208 210 198 214
3 2 1 359 356 352 350 346 342 338 338 338 334 332 331 329 330 332 336 189 197 192 207 224 165 284 312 318 267 285 155 141 132 58 143 36 212 96 92 106 278 234 247 255 229 185 209
1 2 358 352 349 346 344 341 339 335 332 329 327 323 324 325 326 324 262 210 89 27 299 236 247 269 268 326 304 282 211 163 152 155 145 158 204 158 140 143 210 245 224 264 290 186 203
358 357 352 349 351 346 348 346 344 341 338 335 331 328 326 325 322 181 272 203 29 289 271 288 207 235 239 177 225 249 191 151 147 170 178 200 118 115 161 168 217 205 223 241 297 82 165
354 353 347 347 346 341 345 341 344 341 339 336 331 328 328 328 274 1 243 99 324 208 291 241 230 256 171 180 226 214 209 156 157 215 172 246 158 210 128 232 237 258 198 170 168 190 272
349 349 345 341 341 339 337 340 344 340 339 334 329 325 324 339 318 220 58 327 138 216 274 104 159 33 138 203 126 185 163 119 179 165 191 189 164 160 236 242 187 1 195 61 191 142 269
344 344 342 340 340 336 335 333 329 331 336 332 326 322 323 207 224 260 321 296 203 212 239 68 135 156 166 214 180 117 168 95 106 141 187 167 34 235 224 121 251 139 83 80 87 217 256
337 333 332 335 336 334 334 332 332 330 335 331 325 306 261 217 282 333 316 198 195 231 339 36 171 177 184 177 176 152 164 182 168 171 179 183 198 180 217 170 175 77 271 215 179 192 311
331 334 330 332 332 333 333 333 333 331 336 332 325 307 199 227 309 334 217 171 207 291 294 341 330 167 197 163 197 156 148 180 155 180 165 198 211 210 166 233 198 158 284 294 273 246 122
328 330 329 329 331 333 334 334 333 333 337 335 320 164 204 250 217 287 198 185 230 207 308 318 358 186 177 186 179 170 185 194 192 190 197 175 223 221 218 135 159 140 205 239 139 107 237
328 326 327 327 330 333 335 336 335 335 337 334 305 243 38 42 159 210 166 243 233 230 292 247 55 209 163 158 177 192 183 184 192 203 222 171 205 188 116 118 65 233 138 176 221 222 249
302 324 325 323 328 333 339 338 337 337 337 334 239 145 22 128 201 140 197 231 247 241 228 253 234 279 170 163 198 190 191 171 207 180 192 162 252 143 194 200 168 153 182 73 105 297 265
298 304 311 319 328 333 342 339 339 341 343 29 309 115 65 216 140 341 179 198 221 256 211 251 252 239 226 177 181 205 200 228 180 155 181 184 192 227 82 68 16 120 203 207 253 178 46
300 305 307 318 330 336 343 339 339 344 357 322 50 94 124 282 169 181 210 246 243 233 221 211 244 218 185 209 236 218 209 233 171 170 173 172 205 171 152 166 152 230 157 129 162 140 181
303 310 312 322 332 338 343 340 340 344 351 275 245 133 126 80 346 155 153 243 249 223 249 235 259 184 194 229 229 267 235 262 196 213 149 166 172 222 227 104 122 182 162 180 291 203 161
307 311 313 318 334 339 343 343 343 346 349 290 347 82 359 177 201 195 202 258 233 266 224 213 197 223 214 238 217 214 234 203 101 135 135 177 209 198 341 312 187 227 174 175 205 233 241
313 308 317 317 334 340 347 348 349 347 347 322 352 343 15 289 268 196 175 228 232 237 242 198 241 189 189 161 210 267 322 229 174 169 163 188 173 157 120 62 223 216 195 206 220 205 252
310 306 312 314 331 338 349 350 355 0 350 23 4 266 280 129 180 195 209 210 218 350 230 222 242 175 120 162 249 264 246 281 262 165 157 168 157 177 209 135 168 226 206 199 187 202 262
305 303 303 310 324 335 348 352 2 12 28 311 8 282 281 255 232 221 250 264 267 246 254 206 202 233 146 272 247 236 256 37 152 105 148 155 146 162 139 169 205 91 283 244 223 241 211
290 304 295 299 304 332 346 352 359 4 13 304 238 292 331 277 275 277 256 261 290 226 223 255 251 319 146 45 37 333 186 160 51 52 65 212 137 118 176 205 12 161 181 165 196 197 199
285 288 288 283 258 314 337 349 355 4 7 23 258 280 304 306 219 295 310 310 311 338 175 160 123 251 67 74 40 18 80 342 166 105 72 80 86 168 147 190 216 172 166 191 199 252 187
275 277 284 265 227 272 326 341 350 1 8 341 317 245 259 274 271 221 251 314 311 268 285 255 2 213 331 87 55 321 327 349 262 165 165 103 47 183 157 189 225 213 134 157 205 45 159
257 259 269 247 225 226 303 325 345 356 4 1 352 251 314 275 275 220 227 243 292 256 306 15 211 154 74 111 99 230 180 29 311 303 201 174 156 154 131 132 182 172 128 229 54 137 151
249 250 254 241 222 212 252 307 336 349 357 23 283 352 324 238 278 261 249 249 241 249 314 341 2 249 39 101 182 125 115 6 350 271 208 212 275 183 207 178 17 200 11 89 250 191 171